Location: Bayshore Village Mobile Home Park
(26.6945°N, 81.8642°W)
Time: 23:34:32
(UTC+00:00)

Cosmos 2100 Rocket - Pass Details

Date: 17 June 2021
Orbit: 955 x 1001 km, 82.9° (Epoch: 05 August)

Event Time Altitude Azimuth Distance (km) Brightness Sun altitude
Rises 03:00:16 0° 356° (N) 3,719 7.8 -28.4°
Reaches altitude 10° 03:02:49 10° 358° (N) 2,763 7.0 -28.8°
Enters shadow 03:09:00 79° 63° (ENE) 1,010 3.9 -29.6°
